User: anonymous   Login
Location: Laguna de la Cañada del Gallo
(40.3974°N, 5.2096°W)
Time: 18:16:38
(UTC+00:00)
Language:

COSMOS 2455 - Orbit

View from above orbital plane
View from above orbital plane
View from above satellite
View from above satellite

Ground track
Ground track

The orbit data is extracted from the following two-line orbital elements,

1 36095U 09063A   24177.48587791 -.00000029  00000-0  32924-4 0  9997
2 36095  67.1460 207.9127 0009230 277.1313  82.8722 13.96909875744512
Epoch (UTC): 25 June 2024 11:39:39
Eccentricity: 0.0009230
inclination: 67.1460°
perigee height: 898 km
apogee height: 911 km
right ascension of ascending node: 207.9127°
argument of perigee: 277.1313°
revolutions per day: 13.96909875
mean anomaly at epoch: 82.8722°
orbit number at epoch: 74451

The dashed part of the orbit path shows where the satellite is in the earth's shadow,  

DLR